BER7MP LKPR-EDDH

Flight info

Callsign BER7MP
Flight time 1h 4m
Altitude 36000
Route VENOX4B/30 VENOX DCT DEKOV Y621 ESLOR M748 RARUP RARUP6A
Aircraft B738/M-SDE2E3FGHIRWXY/LB1

Departure

Time 2026-05-07 18:51
Airport Václav Havel Airport Prague (LKPR)

Arrival

Time 2026-05-07 19:55
Airport Hamburg Helmut Schmidt Airport (EDDH)
Time Latitude Longitude Altitude Speed Heading
2026-05-07 18:17 50.10931 14.26622 1169 ft 0 kts 215°
2026-05-07 18:18 50.10681 14.26424 1178 ft 0 kts 217°
2026-05-07 18:36 50.10691 14.26436 1174 ft 4 kts 225°
2026-05-07 18:36 50.10705 14.26468 1174 ft 4 kts 258°
2026-05-07 18:36 50.10703 14.26508 1175 ft 4 kts 296°
2026-05-07 18:37 50.10697 14.26525 1174 ft 1 kts 304°
2026-05-07 18:40 50.10700 14.26518 1176 ft 2 kts 304°
2026-05-07 18:40 50.10723 14.26464 1175 ft 9 kts 303°
2026-05-07 18:41 50.10772 14.26350 1174 ft 16 kts 304°
2026-05-07 18:41 50.10797 14.26252 1173 ft 6 kts 243°
2026-05-07 18:41 50.10766 14.26213 1174 ft 6 kts 214°
2026-05-07 18:41 50.10734 14.26178 1176 ft 6 kts 214°
2026-05-07 18:42 50.10688 14.26130 1175 ft 9 kts 214°
2026-05-07 18:42 50.10638 14.26077 1178 ft 9 kts 213°
2026-05-07 18:42 50.10587 14.26025 1184 ft 9 kts 212°
2026-05-07 18:42 50.10535 14.25979 1186 ft 11 kts 198°
2026-05-07 18:43 50.10473 14.26035 1189 ft 11 kts 129°
2026-05-07 18:43 50.10415 14.26155 1190 ft 18 kts 127°
2026-05-07 18:43 50.10360 14.26267 1192 ft 21 kts 127°
2026-05-07 18:43 50.10245 14.26506 1196 ft 20 kts 126°
2026-05-07 18:44 50.10163 14.26677 1202 ft 20 kts 127°
2026-05-07 18:44 50.10083 14.26843 1206 ft 19 kts 127°
2026-05-07 18:44 50.10005 14.27004 1208 ft 18 kts 127°
2026-05-07 18:44 50.09953 14.27110 1209 ft 18 kts 128°
2026-05-07 18:45 50.09878 14.27265 1210 ft 19 kts 127°
2026-05-07 18:45 50.09787 14.27414 1212 ft 19 kts 136°
2026-05-07 18:45 50.09695 14.27557 1215 ft 18 kts 135°
2026-05-07 18:45 50.09605 14.27695 1221 ft 18 kts 135°
2026-05-07 18:46 50.09509 14.27841 1227 ft 20 kts 135°
2026-05-07 18:46 50.09409 14.27994 1233 ft 21 kts 135°
2026-05-07 18:46 50.09304 14.28155 1236 ft 21 kts 135°
2026-05-07 18:46 50.09203 14.28284 1241 ft 13 kts 165°
2026-05-07 18:47 50.09143 14.28259 1240 ft 0 kts 216°
2026-05-07 18:48 50.09136 14.28249 1244 ft 4 kts 219°
2026-05-07 18:48 50.09103 14.28185 1240 ft 11 kts 243°
2026-05-07 18:48 50.09104 14.28050 1237 ft 13 kts 292°
2026-05-07 18:49 50.09117 14.28016 1240 ft 0 kts 306°
2026-05-07 18:50 50.09187 14.27871 1242 ft 49 kts 307°
2026-05-07 18:50 50.09538 14.27149 1215 ft 117 kts 307°
2026-05-07 18:50 50.10143 14.25899 1227 ft 168 kts 307°
2026-05-07 18:51 50.10845 14.24439 2042 ft 166 kts 309°
2026-05-07 18:51 50.11520 14.23016 2964 ft 165 kts 307°
2026-05-07 18:51 50.12222 14.21542 3603 ft 174 kts 307°
2026-05-07 18:51 50.12986 14.19996 4236 ft 188 kts 306°
2026-05-07 18:52 50.13813 14.18289 4556 ft 207 kts 306°
2026-05-07 18:52 50.14726 14.16417 4885 ft 224 kts 306°
2026-05-07 18:52 50.15691 14.14440 5344 ft 234 kts 306°
2026-05-07 18:52 50.16689 14.12372 5846 ft 242 kts 305°
2026-05-07 18:53 50.17723 14.10208 6239 ft 259 kts 305°
2026-05-07 18:53 50.18825 14.07906 6847 ft 268 kts 306°
2026-05-07 18:53 50.19949 14.05583 7682 ft 269 kts 305°
2026-05-07 18:53 50.21090 14.03223 8405 ft 275 kts 309°
2026-05-07 18:54 50.22679 14.01511 9140 ft 283 kts 342°
2026-05-07 18:54 50.24641 14.01367 9884 ft 291 kts 10°
2026-05-07 18:54 50.26629 14.02139 10442 ft 302 kts 14°
2026-05-07 18:54 50.28732 14.03054 10634 ft 324 kts 14°
2026-05-07 18:55 50.30968 14.03961 10994 ft 339 kts 13°
2026-05-07 18:55 50.33254 14.04843 11546 ft 346 kts 12°
2026-05-07 18:55 50.35598 14.05735 12333 ft 346 kts 12°
2026-05-07 18:55 50.37920 14.06618 12937 ft 352 kts 12°
2026-05-07 18:56 50.40329 14.07538 13592 ft 356 kts 13°
2026-05-07 18:56 50.42739 14.08463 14257 ft 359 kts 13°
2026-05-07 18:56 50.45173 14.09401 14890 ft 361 kts 13°
2026-05-07 18:56 50.47633 14.10351 15476 ft 365 kts 13°
2026-05-07 18:57 50.50116 14.11311 16095 ft 368 kts 13°
2026-05-07 18:57 50.52605 14.12275 16732 ft 370 kts 13°
2026-05-07 18:57 50.55086 14.13235 17327 ft 373 kts 12°
2026-05-07 18:57 50.57643 14.14042 17922 ft 376 kts
2026-05-07 18:58 50.60240 14.14672 18506 ft 378 kts
2026-05-07 18:58 50.62787 14.15235 19014 ft 381 kts
2026-05-07 18:58 50.65422 14.15816 19549 ft 383 kts
2026-05-07 18:58 50.68067 14.16416 20070 ft 385 kts
2026-05-07 18:59 50.70730 14.17038 20570 ft 388 kts
2026-05-07 18:59 50.73406 14.17674 21076 ft 390 kts
2026-05-07 18:59 50.76097 14.18319 21589 ft 392 kts
2026-05-07 18:59 50.78809 14.18973 22089 ft 395 kts
2026-05-07 19:00 50.81542 14.19631 22571 ft 397 kts
2026-05-07 19:00 50.84279 14.20291 23033 ft 400 kts
2026-05-07 19:00 50.87006 14.20948 23494 ft 402 kts
2026-05-07 19:00 50.89792 14.21443 23865 ft 405 kts
2026-05-07 19:01 50.92604 14.21120 24235 ft 406 kts 350°
2026-05-07 19:01 50.95338 14.20276 24614 ft 408 kts 348°
2026-05-07 19:01 50.98136 14.19472 24967 ft 411 kts 351°
2026-05-07 19:01 51.00990 14.18924 25310 ft 414 kts 353°
2026-05-07 19:02 51.03857 14.18385 25676 ft 416 kts 351°
2026-05-07 19:02 51.06693 14.17442 26023 ft 417 kts 342°
2026-05-07 19:02 51.09268 14.15350 26312 ft 419 kts 321°
2026-05-07 19:02 51.11335 14.12089 26692 ft 419 kts 311°
2026-05-07 19:03 51.13299 14.08643 27023 ft 421 kts 313°
2026-05-07 19:03 51.15413 14.05392 27321 ft 424 kts 318°
2026-05-07 19:03 51.17657 14.02331 27651 ft 426 kts 320°
2026-05-07 19:03 51.19944 13.99305 27975 ft 427 kts 320°
2026-05-07 19:04 51.22225 13.96249 28287 ft 429 kts 319°
2026-05-07 19:04 51.24490 13.93139 28592 ft 431 kts 319°
2026-05-07 19:04 51.26751 13.89987 28902 ft 432 kts 319°
2026-05-07 19:04 51.29015 13.86814 29233 ft 433 kts 319°
2026-05-07 19:05 51.31283 13.83635 29534 ft 435 kts 319°
2026-05-07 19:05 51.33562 13.80440 29796 ft 437 kts 319°
2026-05-07 19:05 51.35849 13.77232 30074 ft 438 kts 319°
2026-05-07 19:05 51.38120 13.74044 30301 ft 440 kts 319°
2026-05-07 19:06 51.40424 13.70804 30499 ft 442 kts 319°
2026-05-07 19:06 51.45057 13.64277 30919 ft 445 kts 319°
2026-05-07 19:06 51.47378 13.61000 31156 ft 445 kts 319°
2026-05-07 19:07 51.49641 13.57800 31460 ft 445 kts 319°
2026-05-07 19:07 51.51960 13.54516 31750 ft 444 kts 318°
2026-05-07 19:07 51.54274 13.51235 32012 ft 444 kts 318°
2026-05-07 19:07 51.56590 13.47946 32231 ft 443 kts 318°
2026-05-07 19:08 51.58874 13.44698 32461 ft 433 kts 318°
2026-05-07 19:08 51.61069 13.41572 32712 ft 428 kts 318°
2026-05-07 19:08 51.63281 13.38418 32939 ft 424 kts 318°
2026-05-07 19:08 51.65486 13.35269 33213 ft 422 kts 317°
2026-05-07 19:09 51.67683 13.32126 33476 ft 422 kts 317°
2026-05-07 19:09 51.69874 13.28980 33748 ft 422 kts 317°
2026-05-07 19:09 51.72003 13.25918 34010 ft 422 kts 317°
2026-05-07 19:09 51.74195 13.22760 34248 ft 422 kts 317°
2026-05-07 19:10 51.76379 13.19612 34484 ft 421 kts 317°
2026-05-07 19:10 51.78551 13.16477 34838 ft 417 kts 317°
2026-05-07 19:10 51.80699 13.13372 35102 ft 415 kts 317°
2026-05-07 19:10 51.82852 13.10254 35332 ft 415 kts 317°
2026-05-07 19:11 51.85000 13.07139 35539 ft 415 kts 317°
2026-05-07 19:11 51.87147 13.04020 35734 ft 415 kts 317°
2026-05-07 19:11 51.89296 13.00896 35930 ft 415 kts 316°
2026-05-07 19:11 51.91446 12.97766 36081 ft 417 kts 316°
2026-05-07 19:12 51.95807 12.91413 36100 ft 427 kts 316°
2026-05-07 19:12 52.00247 12.84934 36097 ft 431 kts 317°
2026-05-07 19:13 52.04720 12.78388 36100 ft 434 kts 316°
2026-05-07 19:13 52.09155 12.71881 36085 ft 424 kts 316°
2026-05-07 19:14 52.13517 12.65460 36105 ft 423 kts 316°
2026-05-07 19:14 52.17873 12.59018 36102 ft 423 kts 316°
2026-05-07 19:15 52.22233 12.52555 36100 ft 424 kts 316°
2026-05-07 19:15 52.26582 12.46046 36098 ft 424 kts 315°
2026-05-07 19:16 52.30648 12.39172 35752 ft 431 kts 311°
2026-05-07 19:16 52.32672 12.35558 35264 ft 429 kts 311°
2026-05-07 19:16 52.34721 12.32042 34752 ft 426 kts 314°
2026-05-07 19:17 52.36772 12.28818 34176 ft 422 kts 317°
2026-05-07 19:17 52.38952 12.25649 33502 ft 417 kts 319°
2026-05-07 19:17 52.41162 12.22627 32939 ft 410 kts 320°
2026-05-07 19:17 52.43339 12.19670 32397 ft 403 kts 320°
2026-05-07 19:18 52.45457 12.16737 31912 ft 395 kts 319°
2026-05-07 19:18 52.47513 12.13826 31519 ft 386 kts 319°
2026-05-07 19:18 52.49498 12.10968 31135 ft 377 kts 318°
2026-05-07 19:18 52.51446 12.08139 30741 ft 369 kts 318°
2026-05-07 19:19 52.53328 12.05394 30369 ft 362 kts 318°
2026-05-07 19:19 52.55192 12.02670 29968 ft 355 kts 318°
2026-05-07 19:19 52.57021 11.99995 29535 ft 349 kts 318°
2026-05-07 19:19 52.58815 11.97371 29092 ft 342 kts 318°
2026-05-07 19:20 52.60576 11.94792 28666 ft 336 kts 318°
2026-05-07 19:20 52.62321 11.92235 28266 ft 335 kts 318°
2026-05-07 19:20 52.64074 11.89704 27862 ft 335 kts 320°
2026-05-07 19:20 52.65897 11.87312 27467 ft 334 kts 322°
2026-05-07 19:21 52.67747 11.85008 27077 ft 334 kts 323°
2026-05-07 19:21 52.69605 11.82718 26691 ft 333 kts 323°
2026-05-07 19:21 52.71460 11.80422 26307 ft 332 kts 322°
2026-05-07 19:21 52.73287 11.78144 25907 ft 326 kts 322°
2026-05-07 19:22 52.75012 11.75979 25550 ft 322 kts 322°
2026-05-07 19:22 52.76781 11.73748 25175 ft 319 kts 322°
2026-05-07 19:22 52.78533 11.71533 24802 ft 315 kts 322°
2026-05-07 19:22 52.80262 11.69342 24446 ft 313 kts 322°
2026-05-07 19:23 52.81983 11.67157 24140 ft 310 kts 322°
2026-05-07 19:23 52.83673 11.65010 24112 ft 302 kts 322°
2026-05-07 19:23 52.85338 11.62891 24115 ft 304 kts 322°
2026-05-07 19:23 52.87029 11.60736 24125 ft 310 kts 322°
2026-05-07 19:24 52.88744 11.58551 24121 ft 312 kts 322°
2026-05-07 19:24 52.90457 11.56366 24105 ft 310 kts 322°
2026-05-07 19:24 52.92111 11.54253 24096 ft 308 kts 322°
2026-05-07 19:24 52.93805 11.52086 24103 ft 308 kts 321°
2026-05-07 19:25 52.95489 11.49925 24112 ft 309 kts 321°
2026-05-07 19:25 52.97193 11.47732 24113 ft 310 kts 321°
2026-05-07 19:25 52.98898 11.45536 24114 ft 310 kts 321°
2026-05-07 19:25 53.00603 11.43339 24102 ft 309 kts 321°
2026-05-07 19:26 53.02260 11.41202 24074 ft 310 kts 321°
2026-05-07 19:26 53.03983 11.38977 23686 ft 316 kts 321°
2026-05-07 19:26 53.05681 11.36783 23305 ft 317 kts 321°
2026-05-07 19:26 53.07421 11.34534 22894 ft 317 kts 321°
2026-05-07 19:27 53.09165 11.32278 22489 ft 317 kts 321°
2026-05-07 19:27 53.10905 11.30023 22093 ft 317 kts 321°
2026-05-07 19:27 53.12656 11.27787 21700 ft 317 kts 323°
2026-05-07 19:27 53.14457 11.25656 21312 ft 318 kts 324°
2026-05-07 19:28 53.16280 11.23574 20927 ft 318 kts 325°
2026-05-07 19:28 53.18066 11.21546 20553 ft 318 kts 325°
2026-05-07 19:28 53.19893 11.19466 20184 ft 318 kts 324°
2026-05-07 19:28 53.21705 11.17393 19786 ft 314 kts 324°
2026-05-07 19:29 53.23490 11.15343 19426 ft 308 kts 324°
2026-05-07 19:29 53.25233 11.13334 19058 ft 303 kts 324°
2026-05-07 19:29 53.26953 11.11346 18684 ft 298 kts 324°
2026-05-07 19:29 53.28638 11.09395 18319 ft 293 kts 324°
2026-05-07 19:30 53.30301 11.07466 17914 ft 289 kts 324°
2026-05-07 19:30 53.31938 11.05565 17495 ft 285 kts 324°
2026-05-07 19:30 53.33011 11.04317 17230 ft 282 kts 324°
2026-05-07 19:30 53.34612 11.02454 16832 ft 278 kts 324°
2026-05-07 19:31 53.36152 11.00661 16463 ft 277 kts 324°
2026-05-07 19:31 53.37731 10.98819 16087 ft 276 kts 324°
2026-05-07 19:31 53.39307 10.96979 15702 ft 275 kts 324°
2026-05-07 19:31 53.40836 10.95193 15334 ft 274 kts 324°
2026-05-07 19:32 53.42398 10.93367 14964 ft 273 kts 324°
2026-05-07 19:32 53.43908 10.91600 14607 ft 271 kts 324°
2026-05-07 19:32 53.45454 10.89789 14245 ft 270 kts 325°
2026-05-07 19:32 53.46989 10.87990 13868 ft 269 kts 325°
2026-05-07 19:33 53.48519 10.86194 13475 ft 268 kts 325°
2026-05-07 19:33 53.50044 10.84404 13075 ft 266 kts 325°
2026-05-07 19:33 53.51559 10.82623 12686 ft 265 kts 325°
2026-05-07 19:33 53.53041 10.80879 12300 ft 264 kts 325°
2026-05-07 19:34 53.54477 10.79188 11928 ft 264 kts 325°
2026-05-07 19:34 53.55975 10.77423 11557 ft 263 kts 325°
2026-05-07 19:34 53.57474 10.75658 11184 ft 262 kts 325°
2026-05-07 19:34 53.58967 10.73899 10810 ft 261 kts 325°
2026-05-07 19:35 53.60436 10.72167 10449 ft 261 kts 325°
2026-05-07 19:35 53.61914 10.70422 10089 ft 260 kts 325°
2026-05-07 19:35 53.63393 10.68668 9701 ft 260 kts 325°
2026-05-07 19:35 53.64866 10.66913 9299 ft 259 kts 325°
2026-05-07 19:36 53.66327 10.65159 8894 ft 257 kts 325°
2026-05-07 19:36 53.67763 10.63390 8494 ft 255 kts 321°
2026-05-07 19:36 53.68891 10.61198 8089 ft 255 kts 297°
2026-05-07 19:36 53.69287 10.58325 7702 ft 253 kts 267°
2026-05-07 19:37 53.68846 10.55489 7345 ft 250 kts 246°
2026-05-07 19:37 53.68125 10.52823 7151 ft 248 kts 244°
2026-05-07 19:37 53.67471 10.50505 7131 ft 246 kts 244°
2026-05-07 19:37 53.66731 10.47908 7034 ft 247 kts 244°
2026-05-07 19:38 53.65974 10.45262 6784 ft 255 kts 244°
2026-05-07 19:38 53.65201 10.42564 6538 ft 255 kts 244°
2026-05-07 19:38 53.64431 10.39876 6270 ft 254 kts 244°
2026-05-07 19:38 53.63667 10.37208 6016 ft 253 kts 244°
2026-05-07 19:39 53.62908 10.34542 5748 ft 252 kts 244°
2026-05-07 19:39 53.62157 10.31890 5482 ft 251 kts 244°
2026-05-07 19:39 53.61633 10.30032 5307 ft 250 kts 244°
2026-05-07 19:39 53.60892 10.27389 5064 ft 247 kts 244°
2026-05-07 19:40 53.60172 10.24810 4999 ft 240 kts 244°
2026-05-07 19:40 53.59467 10.22279 4996 ft 238 kts 244°
2026-05-07 19:40 53.58780 10.19804 4993 ft 237 kts 244°
2026-05-07 19:40 53.58080 10.17281 5004 ft 239 kts 244°
2026-05-07 19:41 53.57371 10.14723 5004 ft 243 kts 244°
2026-05-07 19:41 53.56647 10.12159 5002 ft 242 kts 242°
2026-05-07 19:41 53.55843 10.09682 4991 ft 240 kts 239°
2026-05-07 19:41 53.55024 10.07251 4994 ft 239 kts 239°
2026-05-07 19:42 53.54202 10.04827 4989 ft 238 kts 239°
2026-05-07 19:42 53.53381 10.02419 4985 ft 237 kts 238°
2026-05-07 19:42 53.52492 10.00102 4998 ft 237 kts 234°
2026-05-07 19:42 53.51553 9.97797 5008 ft 240 kts 234°
2026-05-07 19:43 53.50599 9.95476 5002 ft 241 kts 234°
2026-05-07 19:43 53.49647 9.93165 4986 ft 240 kts 234°
2026-05-07 19:43 53.48698 9.90862 4993 ft 240 kts 234°
2026-05-07 19:43 53.47747 9.88557 4994 ft 240 kts 234°
2026-05-07 19:44 53.46799 9.86256 5001 ft 240 kts 234°
2026-05-07 19:44 53.45829 9.83971 4988 ft 240 kts 231°
2026-05-07 19:44 53.44787 9.81789 4993 ft 240 kts 229°
2026-05-07 19:44 53.43742 9.79654 4991 ft 240 kts 229°
2026-05-07 19:45 53.42688 9.77512 4976 ft 241 kts 229°
2026-05-07 19:45 53.41605 9.75318 4720 ft 248 kts 229°
2026-05-07 19:45 53.40504 9.73088 4458 ft 247 kts 229°
2026-05-07 19:45 53.39440 9.70931 4209 ft 246 kts 229°
2026-05-07 19:46 53.38392 9.68704 3919 ft 241 kts 237°
2026-05-07 19:46 53.37867 9.66101 3623 ft 236 kts 269°
2026-05-07 19:46 53.38213 9.63554 3368 ft 227 kts 302°
2026-05-07 19:46 53.39152 9.61525 3178 ft 218 kts 313°
2026-05-07 19:47 53.40225 9.59787 3017 ft 214 kts 330°
2026-05-07 19:47 53.41622 9.59141 2985 ft 208 kts
2026-05-07 19:47 53.42900 9.59742 2993 ft 199 kts 25°
2026-05-07 19:47 53.44011 9.60913 2986 ft 180 kts 45°
2026-05-07 19:48 53.44881 9.62311 2973 ft 167 kts 47°
2026-05-07 19:48 53.45681 9.63671 2973 ft 161 kts 50°
2026-05-07 19:48 53.46429 9.65059 2981 ft 159 kts 51°
2026-05-07 19:48 53.47151 9.66469 2987 ft 159 kts 52°
2026-05-07 19:49 53.47862 9.67894 2999 ft 158 kts 53°
2026-05-07 19:49 53.48545 9.69277 3012 ft 150 kts 53°
2026-05-07 19:49 53.49205 9.70622 3015 ft 149 kts 53°
2026-05-07 19:49 53.49876 9.71994 3002 ft 153 kts 53°
2026-05-07 19:50 53.50551 9.73374 2995 ft 152 kts 53°
2026-05-07 19:50 53.51223 9.74746 2990 ft 152 kts 53°
2026-05-07 19:50 53.51893 9.76114 2987 ft 152 kts 53°
2026-05-07 19:50 53.52563 9.77483 2964 ft 153 kts 53°
2026-05-07 19:51 53.53247 9.78879 2798 ft 155 kts 53°
2026-05-07 19:51 53.53927 9.80264 2590 ft 152 kts 54°
2026-05-07 19:51 53.54573 9.81582 2401 ft 148 kts 54°
2026-05-07 19:51 53.55227 9.82916 2201 ft 148 kts 54°
2026-05-07 19:52 53.55882 9.84252 1995 ft 147 kts 53°
2026-05-07 19:52 53.56532 9.85579 1791 ft 147 kts 53°
2026-05-07 19:52 53.57153 9.86844 1589 ft 147 kts 53°
2026-05-07 19:52 53.57819 9.88200 1393 ft 145 kts 53°
2026-05-07 19:53 53.58459 9.89505 1186 ft 144 kts 53°
2026-05-07 19:53 53.59093 9.90814 983 ft 144 kts 53°
2026-05-07 19:53 53.59716 9.92101 795 ft 144 kts 51°
2026-05-07 19:53 53.60383 9.93432 618 ft 149 kts 52°
2026-05-07 19:54 53.61051 9.94800 392 ft 151 kts 51°
2026-05-07 19:54 53.61707 9.96143 162 ft 150 kts 51°
2026-05-07 19:54 53.62338 9.97409 47 ft 139 kts 50°
2026-05-07 19:54 53.62881 9.98504 48 ft 105 kts 50°
2026-05-07 19:55 53.63243 9.99240 52 ft 50 kts 52°
2026-05-07 19:55 53.63292 9.99479 49 ft 19 kts 89°
2026-05-07 19:55 53.63287 9.99562 49 ft 0 kts 99°
2026-05-07 19:56 53.63284 9.99589 46 ft 6 kts 99°
2026-05-07 19:56 53.63279 9.99646 49 ft 1 kts 99°
2026-05-07 19:56 53.63277 9.99658 49 ft 1 kts 100°
2026-05-07 19:56 53.63272 9.99688 49 ft 6 kts 108°
2026-05-07 19:57 53.63220 9.99766 49 ft 13 kts 152°
2026-05-07 19:57 53.63136 9.99838 49 ft 13 kts 154°
2026-05-07 19:57 53.63055 9.99907 49 ft 13 kts 153°
2026-05-07 19:57 53.62970 9.99981 49 ft 14 kts 153°
2026-05-07 19:58 53.62878 10.00048 47 ft 12 kts 163°
2026-05-07 19:58 53.62861 10.00057 50 ft 0 kts 163°
2026-05-07 19:58 53.62840 10.00075 49 ft 8 kts 153°
2026-05-07 19:58 53.62815 10.00102 50 ft 2 kts 125°
2026-05-07 19:59 53.62821 10.00144 50 ft 5 kts 67°
2026-05-07 19:59 53.62833 10.00184 48 ft 3 kts 62°
2026-05-07 19:59 53.62837 10.00199 49 ft 1 kts 63°
2026-05-07 19:59 53.62840 10.00210 50 ft 1 kts 63°
2026-05-07 20:00 53.62843 10.00217 50 ft 0 kts 63°
2026-05-07 20:00 53.62843 10.00218 50 ft 0 kts 63°